DL3APY-3 Weather Reports


Display with metric or nautical units.
time (UTC)temp
F
wind
direction
speed
MPH
gust
MPH
rain 1hr
in
rain 24hr
in
rain mn
in
humidity
%
barometer
mb
20260506135023 69 45 1.0 0.0 0.00 0.00 0.00 10 1010.6
20260506134914 68 315 1.0 0.0 0.00 0.00 0.00 10 1010.8
20260506134805 68 0 2.0 0.0 0.00 0.00 0.00 10 1011.1
20260506134547 71 45 1.0 0.0 0.00 0.00 0.00 10 1011.0
20260506134438 72 225 1.0 0.0 0.00 0.00 0.00 10 1011.2
20260506134112 72 270 1.0 0.0 0.00 0.00 0.00 10 1011.1
20260506134003 73 270 0.0 0.0 0.00 0.00 0.00 10 1010.6
20260506133855 70 0 1.0 0.0 0.00 0.00 0.00 10 1010.5
20260506133637 69 90 2.0 0.0 0.00 0.00 0.00 10 1009.9
20260506133528 67 45 2.0 0.0 0.00 0.00 0.00 10 1009.9
20260506133311 65 0 1.0 0.0 0.00 0.00 0.00 10 1010.4
20260506132944 66 0 1.0 0.0 0.00 0.00 0.00 10 1010.4
20260506132509 68 225 2.0 0.0 0.00 0.00 0.00 10 1010.8
20260506132400 69 270 1.0 0.0 0.00 0.00 0.00 10 1010.8
20260506132252 70 45 1.0 0.0 0.00 0.00 0.00 10 1010.8
20260506132143 70 270 1.0 0.0 0.00 0.00 0.00 10 1010.8
20260506132034 72 0 1.0 0.0 0.00 0.00 0.00 10 1010.3
20260506131925 71 315 1.0 0.0 0.00 0.00 0.00 10 1010.1
20260506131816 71 0 1.0 0.0 0.00 0.00 0.00 10 1009.8
20260506131708 71 315 2.0 0.0 0.00 0.00 0.00 10 1009.4
20260506131450 69 315 2.0 0.0 0.00 0.00 0.00 10 1009.1
20260506131341 68 0 1.0 0.0 0.00 0.00 0.00 10 1009.2
20260506131232 68 315 1.0 0.0 0.00 0.00 0.00 10 1009.0
20260506131124 67 0 2.0 0.0 0.00 0.00 0.00 10 1009.1
20260506130906 67 315 1.0 0.0 0.00 0.00 0.00 10 1008.8
20260506130757 66 315 3.0 0.0 0.00 0.00 0.00 10 1009.1
20260506130649 66 0 1.0 0.0 0.00 0.00 0.00 10 1009.1
20260506130213 66 0 1.0 0.0 0.00 0.00 0.00 10 1009.4
20260506125956 66 315 1.0 0.0 0.00 0.00 0.00 10 1009.8
20260506125848 66 315 1.0 0.0 0.00 0.00 0.00 10 1010.0
20260506125738 66 315 1.0 0.0 0.00 0.00 0.00 10 1010.1
20260506125629 66 270 1.0 0.0 0.00 0.00 0.00 10 1010.2
20260506125521 66 315 1.0 0.0 0.00 0.00 0.00 10 1010.3
20260506125412 68 0 1.0 0.0 0.00 0.00 0.00 10 1010.1
20260506124828 66 315 1.0 0.0 0.00 0.00 0.00 10 1009.5
20260506124719 66 315 1.0 0.0 0.00 0.00 0.00 10 1009.7
20260506124611 66 315 1.0 0.0 0.00 0.00 0.00 10 1009.7
20260506124353 66 315 2.0 0.0 0.00 0.00 0.00 10 1010.1
20260506124244 66 315 2.0 0.0 0.00 0.00 0.00 10 1010.4
20260506124136 67 315 1.0 0.0 0.00 0.00 0.00 10 1010.3
20260506124027 68 0 2.0 0.0 0.00 0.00 0.00 10 1010.0
20260506123809 67 315 2.0 0.0 0.00 0.00 0.00 10 1010.2
20260506123700 67 270 2.0 0.0 0.00 0.00 0.00 10 1010.3
20260506123443 66 0 2.0 0.0 0.00 0.00 0.00 10 1010.4
20260506123334 67 270 2.0 0.0 0.00 0.00 0.00 10 1010.4
20260506123225 69 315 1.0 0.0 0.00 0.00 0.00 10 1010.3
20260506123116 70 315 1.0 0.0 0.00 0.00 0.00 10 1010.1
20260506123008 69 315 1.0 0.0 0.00 0.00 0.00 10 1010.4
20260506122859 68 315 3.0 0.0 0.00 0.00 0.00 10 1010.5
20260506122750 68 270 2.0 0.0 0.00 0.00 0.00 10 1010.9
20260506122315 68 225 2.0 0.0 0.00 0.00 0.00 10 1011.2
20260506122206 68 90 1.0 0.0 0.00 0.00 0.00 10 1011.2
20260506121948 67 225 1.0 0.0 0.00 0.00 0.00 10 1011.3
20260506121839 67 180 1.0 0.0 0.00 0.00 0.00 10 1011.2
20260506121513 69 180 1.0 0.0 0.00 0.00 0.00 10 1010.4
20260506121404 69 225 1.0 0.0 0.00 0.00 0.00 10 1010.2
20260506121255 69 180 2.0 0.0 0.00 0.00 0.00 10 1009.9
20260506121147 68 270 2.0 0.0 0.00 0.00 0.00 10 1009.6
20260506121038 69 180 1.0 0.0 0.00 0.00 0.00 10 1008.9
20260506120929 68 225 1.0 0.0 0.00 0.00 0.00 10 1008.9
20260506120820 67 270 1.0 0.0 0.00 0.00 0.00 10 1008.9
20260506120711 66 225 1.0 0.0 0.00 0.00 0.00 10 1008.8
20260506120603 65 270 1.0 0.0 0.00 0.00 0.00 10 1009.0
20260506120454 64 270 2.0 0.0 0.00 0.00 0.00 10 1009.0
20260506120345 64 225 2.0 0.0 0.00 0.00 0.00 10 1009.0
20260506120236 64 270 2.0 0.0 0.00 0.00 0.00 10 1009.1
20260506120127 64 315 1.0 0.0 0.00 0.00 0.00 10 1008.9
20260506120019 64 225 1.0 0.0 0.00 0.00 0.00 10 1009.0
20260506115801 65 270 2.0 0.0 0.00 0.00 0.00 10 1009.3
20260506115652 65 225 2.0 0.0 0.00 0.00 0.00 10 1009.4
20260506115543 65 315 1.0 0.0 0.00 0.00 0.00 10 1009.5
20260506115435 65 225 2.0 0.0 0.00 0.00 0.00 10 1009.6
20260506115326 65 270 4.0 0.0 0.00 0.00 0.00 10 1010.0
20260506115217 66 315 1.0 0.0 0.00 0.00 0.00 10 1009.9
20260506115108 67 180 1.0 0.0 0.00 0.00 0.00 10 1009.7
20260506114633 67 270 2.0 0.0 0.00 0.00 0.00 10 1008.8
20260506114524 67 225 3.0 0.0 0.00 0.00 0.00 10 1008.7
20260506114416 67 225 1.0 0.0 0.00 0.00 0.00 10 1008.5
20260506114158 65 270 2.0 0.0 0.00 0.00 0.00 10 1008.5
20260506114049 65 270 4.0 0.0 0.00 0.00 0.00 10 1008.4
20260506113940 66 270 2.0 0.0 0.00 0.00 0.00 10 1008.0
20260506113832 65 315 2.0 0.0 0.00 0.00 0.00 10 1008.0
20260506113723 65 270 1.0 0.0 0.00 0.00 0.00 10 1007.9
20260506113614 65 225 2.0 0.0 0.00 0.00 0.00 10 1007.6
20260506113505 67 225 1.0 0.0 0.00 0.00 0.00 10 1006.9
20260506113356 67 225 2.0 0.0 0.00 0.00 0.00 10 1006.7
20260506113248 67 315 2.0 0.0 0.00 0.00 0.00 10 1006.8
20260506113139 66 315 1.0 0.0 0.00 0.00 0.00 10 1006.9
20260506113030 65 270 3.0 0.0 0.00 0.00 0.00 10 1007.1
20260506112812 64 270 2.0 0.0 0.00 0.00 0.00 10 1007.6
20260506112704 64 225 1.0 0.0 0.00 0.00 0.00 10 1007.7
20260506112555 64 225 2.0 0.0 0.00 0.00 0.00 10 1008.0
20260506112337 65 225 1.0 0.0 0.00 0.00 0.00 10 1008.1
20260506112228 66 180 3.0 0.0 0.00 0.00 0.00 10 1008.1
20260506112120 66 270 4.0 0.0 0.00 0.00 0.00 10 1008.5
20260506112011 67 225 3.0 0.0 0.00 0.00 0.00 10 1260.8
20260506111902 70 315 1.0 0.0 0.00 0.00 0.00 10 1007.7
20260506111644 70 180 1.0 0.0 0.00 0.00 0.00 10 1006.8
20260506111536 69 180 2.0 0.0 0.00 0.00 0.00 10 1006.4
20260506111318 67 270 1.0 0.0 0.00 0.00 0.00 10 1006.6
20260506111100 68 270 2.0 0.0 0.00 0.00 0.00 10 1006.0
20260506110952 68 270 2.0 0.0 0.00 0.00 0.00 10 1005.7
20260506110517 66 225 2.0 0.0 0.00 0.00 0.00 10 1005.2
20260506110408 65 270 1.0 0.0 0.00 0.00 0.00 10 1005.6
20260506110150 65 270 2.0 0.0 0.00 0.00 0.00 10 1005.4
20260506105933 65 270 2.0 0.0 0.00 0.00 0.00 10 1004.9
20260506105824 65 270 3.0 0.0 0.00 0.00 0.00 10 1004.8
20260506105716 65 225 2.0 0.0 0.00 0.00 0.00 10 1004.6
20260506105606 65 225 1.0 0.0 0.00 0.00 0.00 10 1004.3
20260506105457 65 45 1.0 0.0 0.00 0.00 0.00 10 1004.1
20260506105349 64 45 3.0 0.0 0.00 0.00 0.00 10 1004.2
20260506105240 64 45 2.0 0.0 0.00 0.00 0.00 10 1003.9
20260506105131 64 270 3.0 0.0 0.00 0.00 0.00 10 1003.7
20260506105022 65 270 2.0 0.0 0.00 0.00 0.00 10 1003.2
20260506104914 65 270 1.0 0.0 0.00 0.00 0.00 10 1003.0
20260506104656 66 180 2.0 0.0 0.00 0.00 0.00 10 1002.3
20260506104112 63 180 1.0 0.0 0.00 0.00 0.00 10 1001.0
20260506104004 63 45 2.0 0.0 0.00 0.00 0.00 10 1001.2
20260506103855 62 225 1.0 0.0 0.00 0.00 0.00 10 1001.4
20260506103746 62 270 1.0 0.0 0.00 0.00 0.00 10 1001.5
20260506103637 62 225 1.0 0.0 0.00 0.00 0.00 10 1001.9
20260506103311 62 270 1.0 0.0 0.00 0.00 0.00 10 1002.4
20260506103202 62 270 1.0 0.0 0.00 0.00 0.00 10 1002.5
20260506102944 64 315 1.0 0.0 0.00 0.00 0.00 10 1002.0
20260506102618 65 180 1.0 0.0 0.00 0.00 0.00 10 1001.0
20260506102509 65 180 1.0 0.0 0.00 0.00 0.00 10 1000.9
20260506102400 65 180 1.0 0.0 0.00 0.00 0.00 10 1000.6
20260506102252 65 225 1.0 0.0 0.00 0.00 0.00 10 1000.3
20260506102035 66 225 1.0 0.0 0.00 0.00 0.00 10 999.0
20260506101817 63 270 1.0 0.0 0.00 0.00 0.00 10 999.6
20260506101559 61 270 1.0 0.0 0.00 0.00 0.00 10 1000.6
20260506100906 62 225 1.0 0.0 0.00 0.00 0.00 10 1001.2
20260506100540 62 180 1.0 0.0 0.00 0.00 0.00 10 1001.5
20260506100323 63 225 2.0 0.0 0.00 0.00 0.00 10 1001.5
20260506094937 64 225 1.0 0.0 0.00 0.00 0.00 10 1000.5
20260506094829 64 180 2.0 0.0 0.00 0.00 0.00 10 1000.2
20260506094720 64 180 1.0 0.0 0.00 0.00 0.00 10 1000.2
20260506094611 64 135 1.0 0.0 0.00 0.00 0.00 10 1000.2
20260506094136 63 315 1.0 0.0 0.00 0.00 0.00 10 999.8
20260506094027 62 315 1.0 0.0 0.00 0.00 0.00 10 1000.0
20260506093552 61 225 1.0 0.0 0.00 0.00 0.00 10 999.9
20260506093008 61 45 1.0 0.0 0.00 0.00 0.00 10 999.5
20260506092642 60 225 1.0 0.0 0.00 0.00 0.00 10 999.7
20260506092424 61 315 2.0 0.0 0.00 0.00 0.00 10 999.6
20260506092316 61 315 1.0 0.0 0.00 0.00 0.00 10 999.5
20260506092207 62 90 2.0 0.0 0.00 0.00 0.00 10 999.1
20260506091732 62 315 1.0 0.0 0.00 0.00 0.00 10 998.5
20260506091405 61 315 1.0 0.0 0.00 0.00 0.00 10 998.5
20260506091257 61 315 2.0 0.0 0.00 0.00 0.00 10 998.3
20260506090930 62 315 1.0 0.0 0.00 0.00 0.00 10 997.6
20260506090713 62 315 1.0 0.0 0.00 0.00 0.00 10 997.0
20260506090604 61 315 1.0 0.0 0.00 0.00 0.00 10 997.2
20260506090455 60 270 1.0 0.0 0.00 0.00 0.00 10 997.7
20260506090238 59 315 1.0 0.0 0.00 0.00 0.00 10 997.8
20260506090129 59 270 1.0 0.0 0.00 0.00 0.00 10 998.0
20260506090020 59 270 2.0 0.0 0.00 0.00 0.00 10 998.1
20260506085912 59 315 2.0 0.0 0.00 0.00 0.00 10 998.0
20260506085803 59 315 1.0 0.0 0.00 0.00 0.00 10 998.1
20260506085545 59 315 1.0 0.0 0.00 0.00 0.00 10 997.9
20260506085436 59 315 1.0 0.0 0.00 0.00 0.00 10 997.9
20260506085110 59 315 1.0 0.0 0.00 0.00 0.00 10 997.9
20260506084853 59 0 1.0 0.0 0.00 0.00 0.00 10 997.9
20260506084744 59 315 1.0 0.0 0.00 0.00 0.00 10 998.0
20260506084527 59 270 1.0 0.0 0.00 0.00 0.00 10 997.9
20260506084309 60 315 1.0 0.0 0.00 0.00 0.00 10 997.8
20260506084200 60 0 1.0 0.0 0.00 0.00 0.00 10 997.8
20260506084052 60 270 1.0 0.0 0.00 0.00 0.00 10 997.7
20260506083943 60 270 1.0 0.0 0.00 0.00 0.00 10 997.5
20260506083834 60 225 1.0 0.0 0.00 0.00 0.00 10 997.4
20260506083725 61 315 1.0 0.0 0.00 0.00 0.00 10 997.2
20260506083617 61 225 1.0 0.0 0.00 0.00 0.00 10 996.9
20260506083508 60 270 1.0 0.0 0.00 0.00 0.00 10 997.2
20260506083359 60 270 2.0 0.0 0.00 0.00 0.00 10 997.1
20260506083141 60 225 1.0 0.0 0.00 0.00 0.00 10 996.9
20260506083033 60 0 1.0 0.0 0.00 0.00 0.00 10 997.2
20260506082558 60 270 1.0 0.0 0.00 0.00 0.00 10 997.0
20260506082449 60 315 1.0 0.0 0.00 0.00 0.00 10 997.1
20260506082340 60 270 2.0 0.0 0.00 0.00 0.00 10 996.9
20260506082231 60 315 1.0 0.0 0.00 0.00 0.00 10 996.9
20260506082123 59 315 1.0 0.0 0.00 0.00 0.00 10 997.0
20260506082014 59 315 1.0 0.0 0.00 0.00 0.00 10 997.0
20260506081756 59 315 1.0 0.0 0.00 0.00 0.00 10 997.0
20260506081647 58 315 1.0 0.0 0.00 0.00 0.00 10 997.2
20260506081539 58 315 1.0 0.0 0.00 0.00 0.00 10 997.2
20260506081430 58 315 1.0 0.0 0.00 0.00 0.00 10 997.1
20260506081321 59 270 2.0 0.0 0.00 0.00 0.00 10 997.1
20260506081212 58 270 2.0 0.0 0.00 0.00 0.00 10 997.1
20260506081103 59 315 1.0 0.0 0.00 0.00 0.00 10 997.0
20260506080955 59 0 2.0 0.0 0.00 0.00 0.00 10 996.9
20260506080628 59 270 1.0 0.0 0.00 0.00 0.00 10 996.9
20260506080519 60 315 1.0 0.0 0.00 0.00 0.00 10 996.4
20260506080302 61 315 1.0 0.0 0.00 0.00 0.00 10 996.1
20260506073423 64 270 1.0 0.0 0.00 0.00 0.00 10 995.2
20260506073205 65 0 1.0 0.0 0.00 0.00 0.00 10 995.4
20260506072730 66 315 0.0 0.0 0.00 0.00 0.00 10 996.0
20260506071711 61 90 0.0 0.0 0.00 0.00 0.00 10 998.1
20260506071453 60 180 0.0 0.0 0.00 0.00 0.00 10 998.5
20260506071236 60 0 0.0 0.0 0.00 0.00 0.00 10 998.7
20260506071018 61 315 0.0 0.0 0.00 0.00 0.00 10 998.8
20260506070910 61 45 0.0 0.0 0.00 0.00 0.00 10 999.0
20260506070801 61 180 0.0 0.0 0.00 0.00 0.00 10 999.2
20260506070652 60 180 0.0 0.0 0.00 0.00 0.00 10 999.4
20260506070543 60 180 0.0 0.0 0.00 0.00 0.00 10 999.5
20260506070435 60 180 0.0 0.0 0.00 0.00 0.00 10 999.6
20260506070326 61 180 0.0 0.0 0.00 0.00 0.00 10 999.7
20260506062319 55 225 1.0 0.0 0.00 0.00 0.00 10 1002.4
20260506062101 55 180 1.0 0.0 0.00 0.00 0.00 10 1002.4
20260506061626 56 180 0.0 0.0 0.00 0.00 0.00 10 1002.4
20260506061300 55 180 0.0 0.0 0.00 0.00 0.00 10 1002.6
20260506060933 54 225 1.0 0.0 0.00 0.00 0.00 10 1002.8
20260506060825 53 270 1.0 0.0 0.00 0.00 0.00 10 1002.9
20260506050642 53 315 0.0 0.0 0.00 0.00 0.00 10 706.7
20260506050534 53 270 0.0 0.0 0.00 0.00 0.00 10 706.6
20260506045042 53 270 0.0 0.0 0.00 0.00 0.00 10 706.6
20260506044351 53 270 1.0 0.0 0.00 0.00 0.00 10 706.8
20260506044242 53 225 1.0 0.0 0.00 0.00 0.00 10 706.7
20260506044025 53 180 1.0 0.0 0.00 0.00 0.00 10 706.8
20260506043916 53 270 1.0 0.0 0.00 0.00 0.00 10 706.7
20260506043659 53 270 1.0 0.0 0.00 0.00 0.00 10 706.7
20260506043442 53 225 1.0 0.0 0.00 0.00 0.00 10 706.7
20260506043224 53 270 1.0 0.0 0.00 0.00 0.00 10 706.6
20260506043116 53 270 1.0 0.0 0.00 0.00 0.00 10 706.6
20260506043007 53 315 1.0 0.0 0.00 0.00 0.00 10 706.6
20260506042533 53 270 1.0 0.0 0.00 0.00 0.00 10 706.7
20260506041950 52 270 1.0 0.0 0.00 0.00 0.00 10 706.5
20260506041841 52 225 1.0 0.0 0.00 0.00 0.00 10 706.4
20260506041733 52 270 1.0 0.0 0.00 0.00 0.00 10 706.5
20260506041515 52 45 1.0 0.0 0.00 0.00 0.00 10 706.5
20260506041407 52 45 1.0 0.0 0.00 0.00 0.00 10 706.4
20260506041258 52 45 1.0 0.0 0.00 0.00 0.00 10 706.4
20260506040932 52 270 1.0 0.0 0.00 0.00 0.00 10 706.4
20260506040607 52 270 1.0 0.0 0.00 0.00 0.00 10 706.4
20260506040458 52 225 1.0 0.0 0.00 0.00 0.00 10 706.3
20260506040349 52 270 2.0 0.0 0.00 0.00 0.00 10 706.4
20260506040241 52 270 1.0 0.0 0.00 0.00 0.00 10 706.4
20260506035915 52 225 1.0 0.0 0.00 0.00 0.00 10 706.3
20260506035549 52 225 1.0 0.0 0.00 0.00 0.00 10 706.4
20260506035223 52 225 1.0 0.0 0.00 0.00 0.00 10 706.4
20260506035115 52 225 1.0 0.0 0.00 0.00 0.00 10 706.3
20260506035006 52 225 1.0 0.0 0.00 0.00 0.00 10 706.3
20260506034857 52 270 1.0 0.0 0.00 0.00 0.00 10 706.4
20260506034640 52 225 1.0 0.0 0.00 0.00 0.00 10 706.4
20260506034206 52 270 1.0 0.0 0.00 0.00 0.00 10 706.4
20260506034057 52 270 1.0 0.0 0.00 0.00 0.00 10 706.4
20260506033949 52 270 1.0 0.0 0.00 0.00 0.00 10 706.4
20260506033840 52 45 1.0 0.0 0.00 0.00 0.00 10 706.4
20260506033731 52 270 1.0 0.0 0.00 0.00 0.00 10 706.4
20260506033514 52 270 2.0 0.0 0.00 0.00 0.00 10 706.4
20260506033405 52 45 1.0 0.0 0.00 0.00 0.00 10 706.5
20260506033148 53 180 1.0 0.0 0.00 0.00 0.00 10 706.5
20260506033040 53 225 1.0 0.0 0.00 0.00 0.00 10 706.5
20260506032714 53 315 1.0 0.0 0.00 0.00 0.00 10 706.6
20260506032605 53 270 1.0 0.0 0.00 0.00 0.00 10 706.6
20260506032022 53 270 1.0 0.0 0.00 0.00 0.00 10 706.6
20260506031548 52 225 0.0 0.0 0.00 0.00 0.00 10 706.5
20260506031439 52 270 0.0 0.0 0.00 0.00 0.00 10 706.5
20260506031331 52 270 0.0 0.0 0.00 0.00 0.00 10 706.5
20260506031222 52 270 0.0 0.0 0.00 0.00 0.00 10 706.5
20260506030530 52 225 1.0 0.0 0.00 0.00 0.00 10 706.5
20260506025947 52 315 1.0 0.0 0.00 0.00 0.00 10 706.4
20260506025839 52 270 1.0 0.0 0.00 0.00 0.00 10 706.4
20260506025513 52 225 1.0 0.0 0.00 0.00 0.00 10 706.4
20260506025404 52 270 1.0 0.0 0.00 0.00 0.00 10 706.3
20260506025147 52 225 0.0 0.0 0.00 0.00 0.00 10 706.2
20260506024930 52 270 0.0 0.0 0.00 0.00 0.00 10 706.2
20260506024713 52 225 0.0 0.0 0.00 0.00 0.00 10 706.2
20260506024604 52 180 0.0 0.0 0.00 0.00 0.00 10 706.2
20260506023804 52 180 0.0 0.0 0.00 0.00 0.00 10 706.1
20260506023438 52 225 1.0 0.0 0.00 0.00 0.00 10 706.1
20260506022855 52 315 0.0 0.0 0.00 0.00 0.00 10 706.0
20260506022638 52 315 1.0 0.0 0.00 0.00 0.00 10 706.0
20260506022421 52 315 1.0 0.0 0.00 0.00 0.00 10 706.1
20260506021946 52 0 0.0 0.0 0.00 0.00 0.00 10 706.1
20260506021838 52 315 1.0 0.0 0.00 0.00 0.00 10 706.1
20260506021729 52 315 0.0 0.0 0.00 0.00 0.00 10 706.1
20260506021621 52 315 1.0 0.0 0.00 0.00 0.00 10 706.0
20260506021512 52 225 2.0 0.0 0.00 0.00 0.00 10 706.0
20260506021403 52 270 1.0 0.0 0.00 0.00 0.00 10 706.0
20260506021146 52 225 1.0 0.0 0.00 0.00 0.00 10 706.1
20260506021038 52 225 1.0 0.0 0.00 0.00 0.00 10 706.1
20260506020929 52 270 1.0 0.0 0.00 0.00 0.00 10 706.1
20260506020603 52 315 1.0 0.0 0.00 0.00 0.00 10 706.1
20260506020455 52 270 1.0 0.0 0.00 0.00 0.00 10 706.1
20260506020346 52 270 1.0 0.0 0.00 0.00 0.00 10 706.1
20260506020129 52 270 1.0 0.0 0.00 0.00 0.00 10 706.1
20260506020020 52 270 2.0 0.0 0.00 0.00 0.00 10 706.1
20260506015654 52 270 1.0 0.0 0.00 0.00 0.00 10 706.2
20260506015437 52 270 2.0 0.0 0.00 0.00 0.00 10 706.1
20260506015329 52 270 1.0 0.0 0.00 0.00 0.00 10 706.2
20260506015220 52 270 1.0 0.0 0.00 0.00 0.00 10 706.2
20260506015111 52 315 1.0 0.0 0.00 0.00 0.00 10 706.2
20260506015003 52 270 1.0 0.0 0.00 0.00 0.00 10 706.2
20260506014854 52 315 2.0 0.0 0.00 0.00 0.00 10 706.3
20260506014745 52 270 1.0 0.0 0.00 0.00 0.00 10 706.3
20260506014528 52 270 1.0 0.0 0.00 0.00 0.00 10 706.4
20260506014420 52 315 1.0 0.0 0.00 0.00 0.00 10 706.4
20260506014311 52 270 1.0 0.0 0.00 0.00 0.00 10 706.3
20260506014203 52 315 1.0 0.0 0.00 0.00 0.00 10 706.3
20260506014054 52 315 1.0 0.0 0.00 0.00 0.00 10 706.4
20260506013945 53 0 1.0 0.0 0.00 0.00 0.00 10 706.5
20260506013728 53 315 1.0 0.0 0.00 0.00 0.00 10 706.6
20260506013402 53 315 1.0 0.0 0.00 0.00 0.00 10 706.5
20260506013253 53 315 1.0 0.0 0.00 0.00 0.00 10 706.5
20260506013145 53 270 1.0 0.0 0.00 0.00 0.00 10 706.5
20260506013036 53 180 2.0 0.0 0.00 0.00 0.00 10 706.5
20260506012819 53 270 2.0 0.0 0.00 0.00 0.00 10 706.5
20260506012710 53 315 2.0 0.0 0.00 0.00 0.00 10 706.5
20260506012601 53 270 1.0 0.0 0.00 0.00 0.00 10 706.5
20260506012453 53 270 1.0 0.0 0.00 0.00 0.00 10 706.5
20260506012344 53 315 2.0 0.0 0.00 0.00 0.00 10 706.5
20260506012236 53 270 1.0 0.0 0.00 0.00 0.00 10 706.5
20260506012018 53 270 1.0 0.0 0.00 0.00 0.00 10 706.5
20260506011910 53 225 2.0 0.0 0.00 0.00 0.00 10 706.5
20260506011801 52 270 1.0 0.0 0.00 0.00 0.00 10 706.5
20260506011652 53 270 2.0 0.0 0.00 0.00 0.00 10 706.5
20260506011544 52 270 1.0 0.0 0.00 0.00 0.00 10 706.5
20260506011435 52 270 1.0 0.0 0.00 0.00 0.00 10 706.4
20260506011327 52 45 1.0 0.0 0.00 0.00 0.00 10 706.4
20260506011109 52 225 1.0 0.0 0.00 0.00 0.00 10 706.4
20260506011001 52 225 2.0 0.0 0.00 0.00 0.00 10 706.4
20260506010852 52 225 1.0 0.0 0.00 0.00 0.00 10 706.4
20260506010744 52 270 3.0 0.0 0.00 0.00 0.00 10 706.4
20260506010635 52 270 1.0 0.0 0.00 0.00 0.00 10 706.4
20260506010418 52 225 1.0 0.0 0.00 0.00 0.00 10 706.3
20260506010309 52 270 1.0 0.0 0.00 0.00 0.00 10 706.4
20260506010200 52 315 1.0 0.0 0.00 0.00 0.00 10 706.4
20260506010052 52 270 2.0 0.0 0.00 0.00 0.00 10 706.3
20260506005943 52 225 2.0 0.0 0.00 0.00 0.00 10 706.3
20260506005834 52 225 2.0 0.0 0.00 0.00 0.00 10 706.3
20260506005726 52 270 2.0 0.0 0.00 0.00 0.00 10 892.2
20260506005617 52 270 2.0 0.0 0.00 0.00 0.00 10 706.3
20260506005509 52 225 1.0 0.0 0.00 0.00 0.00 10 706.2
20260506005400 52 270 2.0 0.0 0.00 0.00 0.00 10 706.2
20260506005251 52 225 1.0 0.0 0.00 0.00 0.00 10 706.3
20260506005143 52 270 2.0 0.0 0.00 0.00 0.00 10 706.3
20260506005034 52 225 2.0 0.0 0.00 0.00 0.00 10 706.2
20260506004925 52 270 1.0 0.0 0.00 0.00 0.00 10 706.3
20260506004817 52 270 1.0 0.0 0.00 0.00 0.00 10 706.3
20260506004559 52 315 2.0 0.0 0.00 0.00 0.00 10 706.2
20260506004451 52 180 1.0 0.0 0.00 0.00 0.00 10 706.3
20260506004342 52 270 1.0 0.0 0.00 0.00 0.00 10 706.3
20260506004234 52 225 1.0 0.0 0.00 0.00 0.00 10 706.3
20260506004125 52 270 1.0 0.0 0.00 0.00 0.00 10 706.3
20260506004016 52 315 1.0 0.0 0.00 0.00 0.00 10 706.3
20260506003908 52 225 2.0 0.0 0.00 0.00 0.00 10 706.3
20260506003759 52 225 1.0 0.0 0.00 0.00 0.00 10 706.3
20260506003650 52 270 1.0 0.0 0.00 0.00 0.00 10 706.3
20260506003542 52 270 1.0 0.0 0.00 0.00 0.00 10 706.3
20260506003433 52 270 1.0 0.0 0.00 0.00 0.00 10 706.3
20260506003325 52 270 1.0 0.0 0.00 0.00 0.00 10 706.3
20260506003216 52 270 3.0 0.0 0.00 0.00 0.00 10 706.4
20260506002958 52 315 2.0 0.0 0.00 0.00 0.00 10 706.4
20260506002850 52 270 2.0 0.0 0.00 0.00 0.00 10 706.3
20260506002741 52 45 1.0 0.0 0.00 0.00 0.00 10 706.4
20260506002633 52 270 3.0 0.0 0.00 0.00 0.00 10 706.4
20260506002524 52 270 1.0 0.0 0.00 0.00 0.00 10 706.4
20260506002415 52 270 2.0 0.0 0.00 0.00 0.00 10 706.4
20260506002307 52 225 1.0 0.0 0.00 0.00 0.00 10 706.4
20260506002158 53 225 2.0 0.0 0.00 0.00 0.00 10 706.5
20260506001941 53 225 1.0 0.0 0.00 0.00 0.00 10 706.5
20260506001832 53 270 1.0 0.0 0.00 0.00 0.00 10 706.4
20260506001724 53 225 1.0 0.0 0.00 0.00 0.00 10 706.5
20260506001615 53 270 1.0 0.0 0.00 0.00 0.00 10 706.5
20260506001506 52 270 2.0 0.0 0.00 0.00 0.00 10 706.5
20260506001358 53 225 2.0 0.0 0.00 0.00 0.00 10 706.5
20260506001140 52 270 1.0 0.0 0.00 0.00 0.00 10 706.4
20260506001032 53 315 3.0 0.0 0.00 0.00 0.00 10 706.5
20260506000923 52 1.0 0.0 0.00 0.00 0.00 10 706.4
20260506000815 53 270 2.0 0.0 0.00 0.00 0.00 10 706.4
20260506000706 52 315 4.0 0.0 0.00 0.00 0.00 10 706.5
20260506000557 52 270 4.0 0.0 0.00 0.00 0.00 10 706.4
20260506000449 52 225 2.0 0.0 0.00 0.00 0.00 10 706.4
20260506000232 52 270 2.0 0.0 0.00 0.00 0.00 10 706.4
20260506000123 52 270 2.0 0.0 0.00 0.00 0.00 10 706.4
20260506000014 53 270 2.0 0.0 0.00 0.00 0.00 10 706.4
20260505235906 53 270 3.0 0.0 0.00 0.00 0.00 10 706.5
20260505235757 53 315 2.0 0.0 0.00 0.00 0.00 10 706.5
20260505235648 53 315 2.0 0.0 0.00 0.00 0.00 10 706.5
20260505235540 53 2.0 0.0 0.00 0.00 0.00 10 706.4
20260505235431 53 225 4.0 0.0 0.00 0.00 0.00 10 706.5
20260505235322 53 315 3.0 0.0 0.00 0.00 0.00 10 706.4
20260505235214 53 270 2.0 0.0 0.00 0.00 0.00 10 706.5
20260505235105 53 225 2.0 0.0 0.00 0.00 0.00 10 706.5
20260505234956 53 225 1.0 0.0 0.00 0.00 0.00 10 706.5
20260505234848 53 225 2.0 0.0 0.00 0.00 0.00 10 706.5
20260505234739 53 270 3.0 0.0 0.00 0.00 0.00 10 706.4
20260505234522 53 270 3.0 0.0 0.01 0.00 0.00 10 706.5
20260505234414 53 270 2.0 0.0 0.01 0.00 0.00 10 706.5
20260505234305 53 315 4.0 0.0 0.01 0.00 0.00 10 706.5
20260505234156 53 45 2.0 0.0 0.01 0.00 0.00 10 706.5
20260505234047 53 180 5.0 0.0 0.01 0.00 0.00 10 706.5
20260505233939 53 270 3.0 0.0 0.01 0.00 0.00 10 706.5
20260505233830 53 270 3.0 0.0 0.01 0.00 0.00 10 706.6
20260505233721 53 270 1.0 0.0 0.01 0.00 0.00 10 706.6
20260505233613 53 225 3.0 0.0 0.01 0.00 0.00 10 706.6
20260505233504 53 45 3.0 0.0 0.01 0.00 0.00 10 706.7
20260505233355 53 270 2.0 0.0 0.01 0.00 0.00 10 706.8
20260505233247 54 225 2.0 0.0 0.01 0.00 0.00 10 707.2
20260505233138 54 270 4.0 0.0 0.01 0.00 0.00 10 707.4
20260505233030 54 270 3.0 0.0 0.01 0.00 0.00 10 707.6
20260505232921 55 270 1.0 0.0 0.01 0.00 0.00 10 708.0
20260505232812 55 315 1.0 0.0 0.00 0.00 0.00 10 708.0
20260505232704 55 315 3.0 0.0 0.00 0.00 0.00 10 708.0
20260505232555 55 270 3.0 0.0 0.00 0.00 0.00 10 708.1
20260505232446 55 270 1.0 0.0 0.00 0.00 0.00 10 708.1
20260505232338 55 45 1.0 0.0 0.00 0.00 0.00 10 708.1
20260505232229 55 225 3.0 0.0 0.00 0.00 0.00 10 708.1
20260505232012 55 225 1.0 0.0 0.00 0.00 0.00 10 708.1
20260505231903 55 315 1.0 0.0 0.00 0.00 0.00 10 708.1
20260505231755 55 315 1.0 0.0 0.00 0.00 0.00 10 708.1
20260505231537 55 270 1.0 0.0 0.00 0.00 0.00 10 708.1
20260505231429 55 225 1.0 0.0 0.00 0.00 0.00 10 708.1
20260505231320 55 225 1.0 0.0 0.00 0.00 0.00 10 708.1
20260505230954 55 315 1.0 0.0 0.00 0.00 0.00 10 708.1
20260505230846 55 270 2.0 0.0 0.00 0.00 0.00 10 708.2
20260505230737 55 315 1.0 0.0 0.00 0.00 0.00 10 708.2
20260505230520 55 270 1.0 0.0 0.00 0.00 0.00 10 708.2
20260505230154 55 315 1.0 0.0 0.00 0.00 0.00 10 708.3
20260505225720 55 315 1.0 0.0 0.00 0.00 0.00 10 708.2
20260505225611 55 315 1.0 0.0 0.00 0.00 0.00 10 708.2
20260505225502 55 315 1.0 0.0 0.00 0.00 0.00 10 708.2
20260505225028 55 315 1.0 0.0 0.00 0.00 0.00 10 708.2
20260505224919 55 0 1.0 0.0 0.00 0.00 0.00 10 708.2
20260505224702 55 315 1.0 0.0 0.00 0.00 0.00 10 708.2
20260505224336 55 0 1.0 0.0 0.00 0.00 0.00 10 708.2
20260505223536 56 0 0.0 0.0 0.02 0.00 0.00 10 708.3
20260505223101 55 0 1.0 0.0 0.02 0.00 0.00 10 708.2
20260505222736 55 45 1.0 0.0 0.02 0.00 0.00 10 708.2
20260505222627 55 45 1.0 0.0 0.02 0.00 0.00 10 708.2
20260505222518 55 0 0.0 0.0 0.02 0.00 0.00 10 708.2
20260505222301 55 0 1.0 0.0 0.02 0.00 0.00 10 708.2
20260505222044 55 0 1.0 0.0 0.02 0.00 0.00 10 708.3
20260505221935 55 45 1.0 0.0 0.02 0.00 0.00 10 708.2
20260505221827 56 45 2.0 0.0 0.02 0.00 0.00 10 708.2
20260505221718 55 90 1.0 0.0 0.02 0.00 0.00 10 708.3
20260505221501 56 0 1.0 0.0 0.02 0.00 0.00 10 708.2
20260505220917 56 0 1.0 0.0 0.02 0.00 0.00 10 708.3
20260505220809 56 45 2.0 0.0 0.02 0.00 0.00 10 708.3
20260505220710 56 45 1.0 0.0 0.02 0.00 0.00 10 708.3
20260505220443 56 45 1.0 0.0 0.02 0.00 0.00 10 708.3
20260505220334 56 45 1.0 0.0 0.02 0.00 0.00 10 708.3
20260505220226 56 0 1.0 0.0 0.02 0.00 0.00 10 708.3
20260505220117 56 45 1.0 0.0 0.01 0.00 0.00 10 708.3
20260505220009 56 45 1.0 0.0 0.01 0.00 0.00 10 708.3
20260505215900 56 45 2.0 0.0 0.01 0.00 0.00 10 708.3
20260505215643 56 45 0.0 0.0 0.01 0.00 0.00 10 708.4
20260505215426 56 315 2.0 0.0 0.01 0.00 0.00 10 708.4
20260505215317 56 45 1.0 0.0 0.01 0.00 0.00 10 708.3
20260505215208 56 90 1.0 0.0 0.01 0.00 0.00 10 708.4
20260505214951 56 45 1.0 0.0 0.01 0.00 0.00 10 708.4
20260505214625 56 90 1.0 0.0 0.01 0.00 0.00 10 708.4
20260505214259 56 0 1.0 0.0 0.00 0.00 0.00 10 708.4
20260505213825 56 0 3.0 0.0 0.00 0.00 0.00 10 708.4
20260505213608 56 45 1.0 0.0 0.00 0.00 0.00 10 708.4
20260505213459 56 0 1.0 0.0 0.00 0.00 0.00 10 708.4
20260505213133 56 0 1.0 0.0 0.00 0.00 0.00 10 708.5
20260505213025 56 90 1.0 0.0 0.00 0.00 0.00 10 708.5
20260505212807 56 45 1.0 0.0 0.00 0.00 0.00 10 708.5
20260505212659 56 45 1.0 0.0 0.00 0.00 0.00 10 708.5
20260505212550 56 45 1.0 0.0 0.03 0.00 0.00 10 708.5
20260505212441 56 45 1.0 0.0 0.03 0.00 0.00 10 708.6
20260505212224 56 90 2.0 0.0 0.03 0.00 0.00 10 708.6
20260505212116 56 45 1.0 0.0 0.03 0.00 0.00 10 708.6
20260505212007 56 45 1.0 0.0 0.03 0.00 0.00 10 708.6
20260505211858 56 45 1.0 0.0 0.03 0.00 0.00 10 708.6
20260505211641 56 45 2.0 0.0 0.02 0.00 0.00 10 708.6
20260505211424 56 90 4.0 0.0 0.02 0.00 0.00 10 708.6
20260505211315 56 45 1.0 0.0 0.02 0.00 0.00 10 708.6
20260505211206 56 0 2.0 0.0 0.02 0.00 0.00 10 708.6
20260505210949 56 45 1.0 0.0 0.02 0.00 0.00 10 708.6
20260505210840 56 45 1.0 0.0 0.02 0.00 0.00 10 708.6
20260505210515 56 90 1.0 0.0 0.02 0.00 0.00 10 708.6
20260505210406 56 90 1.0 0.0 0.02 0.00 0.00 10 708.6
20260505210257 56 45 1.0 0.0 0.02 0.00 0.00 10 708.6
20260505210149 56 135 2.0 0.0 0.02 0.00 0.00 10 708.6
20260505210040 56 45 1.0 0.0 0.02 0.00 0.00 10 708.6
20260505205823 56 45 1.0 0.0 0.02 0.00 0.00 10 708.7
20260505205349 56 45 1.0 0.0 0.01 0.00 0.00 10 708.7
20260505205240 56 0 1.0 0.0 0.01 0.00 0.00 10 708.7
20260505204440 56 45 1.0 0.0 0.01 0.00 0.00 10 708.7
20260505204157 56 45 1.0 0.0 0.01 0.00 0.00 10 708.7
20260505203748 56 45 1.0 0.0 0.01 0.00 0.00 10 708.7
20260505203313 56 90 1.0 0.0 0.00 0.00 0.00 10 708.8
20260505202948 56 0 1.0 0.0 0.00 0.00 0.00 10 708.8
20260505202039 57 45 1.0 0.0 0.00 0.00 0.00 10 708.9
20260505201822 57 45 1.0 0.0 0.00 0.00 0.00 10 708.9
20260505201604 57 45 1.0 0.0 0.02 0.00 0.00 10 708.9
20260505201239 57 45 2.0 0.0 0.02 0.00 0.00 10 708.9
20260505201021 57 90 1.0 0.0 0.02 0.00 0.00 10 709.0
20260505200547 57 0 1.0 0.0 0.01 0.00 0.00 10 709.0
20260505200438 57 45 1.0 0.0 0.01 0.00 0.00 10 709.0
20260505200330 57 0 1.0 0.0 0.01 0.00 0.00 10 709.0
20260505200221 57 45 2.0 0.0 0.01 0.00 0.00 10 709.1
20260505200112 57 45 1.0 0.0 0.01 0.00 0.00 10 709.1
20260505200004 57 90 1.0 0.0 0.01 0.00 0.00 10 709.1
20260505195855 57 45 1.0 0.0 0.01 0.00 0.00 10 709.1
20260505195747 57 45 1.0 0.0 0.01 0.00 0.00 10 709.2
20260505195638 57 45 1.0 0.0 0.01 0.00 0.00 10 709.2
20260505195529 57 45 1.0 0.0 0.01 0.00 0.00 10 709.1
20260505195421 57 45 2.0 0.0 0.01 0.00 0.00 10 709.2
20260505195312 57 0 1.0 0.0 0.01 0.00 0.00 10 709.2
20260505195204 57 45 2.0 0.0 0.01 0.00 0.00 10 709.3
20260505194946 57 45 2.0 0.0 0.00 0.00 0.00 10 709.3
20260505194838 57 45 2.0 0.0 0.00 0.00 0.00 10 709.3
20260505194729 57 45 1.0 0.0 0.00 0.00 0.00 10 709.3
20260505194620 57 45 1.0 0.0 0.00 0.00 0.00 10 709.3
20260505194512 57 45 1.0 0.0 0.00 0.00 0.00 10 709.4
20260505194403 57 0 2.0 0.0 0.00 0.00 0.00 10 709.4
20260505194255 57 45 1.0 0.0 0.00 0.00 0.00 10 709.4
20260505194146 57 0 1.0 0.0 0.00 0.00 0.00 10 709.4
20260505194037 57 0 2.0 0.0 0.00 0.00 0.00 10 709.5
20260505193929 58 45 1.0 0.0 0.00 0.00 0.00 10 709.5
20260505193711 58 45 2.0 0.0 0.00 0.00 0.00 10 709.5
20260505193454 58 0 1.0 0.0 0.00 0.00 0.00 10 709.6
20260505193128 58 0 1.0 0.0 0.00 0.00 0.00 10 709.7
20260505192911 58 45 1.0 0.0 0.00 0.00 0.00 10 709.7
20260505192802 58 45 1.0 0.0 0.00 0.00 0.00 10 709.8
20260505192654 58 0 1.0 0.0 0.00 0.00 0.00 10 709.8
20260505192545 58 0 1.0 0.0 0.00 0.00 0.00 10 709.8
20260505192355 58 45 1.0 0.0 0.00 0.00 0.00 10 710.0
20260505192328 58 45 2.0 0.0 0.00 0.00 0.00 10 709.9
20260505192219 58 0 1.0 0.0 0.00 0.00 0.00 10 709.9
20260505191853 58 0 1.0 0.0 0.00 0.00 0.00 10 710.0
20260505191745 58 0 1.0 0.0 0.00 0.00 0.00 10 710.0
20260505185602 59 90 1.0 0.0 0.00 0.00 0.00 10 710.2
20260505185019 59 90 2.0 0.0 0.00 0.00 0.00 10 710.3
20260505184910 59 90 2.0 0.0 0.00 0.00 0.00 10 710.3
20260505184802 59 90 1.0 0.0 0.00 0.00 0.00 10 710.3
20260505184545 59 135 2.0 0.0 0.00 0.00 0.00 10 710.4
20260505184436 59 45 1.0 0.0 0.00 0.00 0.00 10 710.3
20260505184219 59 90 1.0 0.0 0.00 0.00 0.00 10 710.4
20260505184002 59 0 1.0 0.0 0.00 0.00 0.00 10 710.4
20260505183853 59 45 1.0 0.0 0.00 0.00 0.00 10 710.4
20260505183745 59 90 1.0 0.0 0.00 0.00 0.00 10 710.5
20260505183636 59 90 1.0 0.0 0.00 0.00 0.00 10 710.5
20260505183528 59 90 1.0 0.0 0.00 0.00 0.00 10 710.5
20260505183311 59 0 1.0 0.0 0.00 0.00 0.00 10 710.5
20260505183202 59 90 1.0 0.0 0.00 0.00 0.00 10 710.6
20260505183054 59 90 1.0 0.0 0.00 0.00 0.00 10 710.6
20260505182936 59 135 1.0 0.0 0.00 0.00 0.00 10 710.6